Regional Weather Roundup
Issued by NWS Midland/Odessa, TX

Home | Current Version | Previous Version | Text Only | Print | Product List | Glossary On
Versions: 1 2 3 4 5 6 7 8 9 10 11 12 13 14 15 16 17 18 19 20 21 22 23 24 25 26 27 28 29 30 31 32 33 34 35 36 37 38 39 40 41 42 43 44 45 46 47 48 49 50
000
ASUS44 KMAF 301510
RWRMAF
MIDLAND AREA WEATHER ROUNDUP
NATIONAL WEATHER SERVICE MIDLAND TX
1000 AM CDT SAT JUL 30 2016

...IN SOUTHWEST TEXAS AND SOUTHEAST NEW MEXICO...

CITY           SKY/WX    TMP DP  RH WIND       PRES   REMARKS
ALPINE         SUNNY     77  59  54 S8        30.21S
ANDREWS        FAIR      80  62  53 S10       30.10F
ARTESIA        SUNNY     79  63  57 SE7G13    30.11R
BIG SPRING     MOSUNNY   83  64  52 S6        30.11S
CARLSBAD       SUNNY     80  61  52 SE12      30.08R
DRYDEN           N/A     79  66  64 VRB5      30.05R
FORT STOCKTON  SUNNY     80  64  58 SE12      30.07S
GUAD PASS      SUNNY     75  57  53 VRB6      30.23R
HOBBS          SUNNY     77  64  65 SE12      30.14R
MARFA          SUNNY     71  62  73 S9        30.20S
MIDLAND AIRPK  SUNNY     82  62  49 S10       30.10R
MIDLAND INTL   SUNNY     83  61  47 S13       30.09R
ODESSA         SUNNY     81  62  52 S12       30.10R
PECOS          SUNNY     83  62  48 SE7       30.05S
PRESIDIO       FAIR      78  62  56 NE6       30.07S
SEMINOLE       SUNNY     80  63  56 S8        30.13R
SNYDER           N/A     81  64  57 SW8       30.09S
WINK           SUNNY     81  64  56 SE12      30.06R
$$
...OTHER STATIONS IN TEXAS...

CITY           SKY/WX    TMP DP  RH WIND       PRES   REMARKS
ABILENE        SUNNY     83  68  60 S8        30.06S
AMARILLO       SUNNY     76  63  64 S14       30.12S
AUSTIN         MOSUNNY   84  75  74 S10       30.05R
BROWNSVILLE    MOSUNNY   85  76  74 S9        30.01R
CORPUS CHRISTI PTSUNNY   87  76  69 S8        30.01F
DALLAS FTW     MOSUNNY   89  71  55 SW13      30.00S
DEL RIO        CLOUDY    82  68  62 SE12      30.02R
EL PASO        PTSUNNY   79  61  53 E6        30.10R
HOUSTON INT    MOSUNNY   86  76  71 W9        30.03R
LUBBOCK        CLOUDY    74  62  66 CALM      30.12S
SAN ANGELO     SUNNY     82  67  60 S10       30.07R
SAN ANTONIO    PTSUNNY   83  72  69 S10       30.06R
WACO           SUNNY     86  71  60 SW10      30.03S
WICHITA FALLS  NOT AVBL
$$
...OTHER LOCATIONS IN NEW MEXICO...

CITY           SKY/WX    TMP DP  RH WIND       PRES   REMARKS
ALAMAGORDO     MOSUNNY   77  57  50 CALM      30.14S
ALBUQUERQUE    CLOUDY    72  55  55 N6        30.20R
CANNON AFB     SUNNY     75  62  64 S17       30.16R
CLOVIS         SUNNY     73  63  68 S16       30.16S
HOLLOMAN AFB   MOSUNNY   79  58  48 S7        30.11S
ROSWELL        SUNNY     79  60  52 SE13      30.11R
RUIDOSO          N/A     72  52  49 CALM      30.34R
SANTA FE       SUNNY     72  51  47 SE12      30.25R
TRUTH OR CONSE MOSUNNY   77  50  38 CALM      30.16R
TUCUMCARI      SUNNY     73  61  65 SW8       30.13R
$$



USA.gov is the U.S. government's official web portal to all federal, state and local government web resources and services.